Location: Ferchesar
(52.6477°N, 12.4298°E)
Time: 08:19:39
(UTC+01:00)

N. Korean satellite - Visible Passes

Search period start: 27 January 2021 00:00
Search period end: 06 February 2021 00:00
Orbit: 452 x 502 km, 97.2° (Epoch: 26 January)

Date Brightness Start Highest point End Pass type
(mag) Time Alt. Az. Time Alt. Az. Time Alt. Az.
27 Jan 9.3 04:51:20 10° NE 04:53:50 18° E 04:56:19 10° SE visible
27 Jan 6.9 06:24:05 10° N 06:27:21 39° WNW 06:30:34 10° SW visible
28 Jan 6.3 05:57:20 10° NNE 06:00:48 80° WNW 06:04:13 10° SSW visible
29 Jan 7.3 05:30:47 10° NNE 05:34:10 49° E 05:37:30 10° S visible
29 Jan 8.0 07:04:54 10° NNW 07:07:10 16° WNW 07:09:23 10° WSW visible
29 Jan 9.7 17:45:36 10° SW 17:48:03 17° W 17:50:31 10° NW visible
30 Jan 8.7 05:04:29 10° NE 05:07:25 25° E 05:10:18 10° SSE visible
30 Jan 7.3 06:37:44 10° N 06:40:45 28° WNW 06:43:44 10° SW visible
31 Jan 9.7 04:38:44 10° ENE 04:40:33 14° E 04:42:22 10° ESE visible
31 Jan 6.5 06:10:50 10° N 06:14:14 55° WNW 06:17:34 10° SSW visible
01 Feb 6.6 05:44:10 10° NNE 05:47:38 72° ESE 05:51:02 10° S visible
01 Feb 10.0 18:00:01 10° WSW 18:01:38 13° W 18:03:15 10° WNW visible
02 Feb 8.1 05:17:43 10° NNE 05:20:55 35° E 05:24:04 10° SSE visible
02 Feb 7.7 06:51:24 10° NNW 06:54:05 21° WNW 06:56:43 10° WSW visible
02 Feb 9.5 17:31:53 10° SSW 17:34:46 23° W 17:37:38 10° NW visible
03 Feb 9.3 04:51:36 10° NE 04:54:06 19° E 04:56:34 10° SE visible
03 Feb 6.9 06:24:22 10° N 06:27:35 38° WNW 06:30:47 10° SW visible
04 Feb 6.3 05:57:34 10° N 06:01:00 79° WNW 06:04:24 10° SSW visible
05 Feb 7.3 05:30:57 10° NNE 05:34:20 50° E 05:37:38 10° S visible
05 Feb 8.1 07:05:07 10° NNW 07:07:19 16° WNW 07:09:30 10° W visible
05 Feb 9.7 17:45:53 10° SW 17:48:14 17° W 17:50:35 10° NW visible
